Notices

What's New in latest Release from April 7th, 2021:

- Updated Glossary, including Speed of Maximum Gust, and Total Hourly Precipitation

- Updated national and regional climate services offices contacts and prices information

- Addition of station inventory lists for 1981-2010, 1971-2000, and 1961-1990 Normals.

If you haven't already, please take our survey and provide feedback about our website: https://eccc.sondage-survey.ca/f/LanguageSelection.aspx?s=442ca660-fcf1-47c0-95a9-59707d6fd709

Hourly Data Report for November 10, 2019

PINAWA
MANITOBA
Current Station Operator: ECCC - MSC

50°10'38.020" N
96°03'53.000" W
268.00 m
503B1ER
71448
WEA

Download Data

Hourly Data (November 2019)
Hourly Data Report for November 10, 2019
TIME
LST
Temp Definition
°C
Dew Point Definition
°C
Rel Hum Definition
%
Precip. Amount Definition
mm

Wind Dir Definition
10's deg

Wind Spd Definition
km/h
Visibility Definition
km
Stn Press Definition
kPa
Hmdx Definition


Wind Chill Definition


Weather Definition


00:00 -12.6 LegendMM LegendMM 0.0 2 9   98.94   -18 LegendNANA
01:00 -14.0 LegendMM LegendMM 0.0 33 6   99.11   -18 LegendNANA
02:00 -13.5 LegendMM LegendMM 0.0 2 9   99.16   -19 LegendNANA
03:00 -13.9 LegendMM LegendMM 0.0 2 6   99.23   -18 LegendNANA
04:00 -14.5 LegendMM LegendMM 0.0 4 3   99.26   -17 LegendNANA
05:00 -17.3 LegendMM LegendMM 0.2 6 2   99.28   -19 LegendNANA
06:00 -17.0 LegendMM LegendMM 0.0 1 3   99.36   -19 LegendNANA
07:00 -14.8 LegendMM LegendMM 0.0 33 2   99.40   -16 LegendNANA
08:00 -14.0 LegendMM LegendMM 0.0 28 6   99.49   -18 LegendNANA
09:00 -13.3 LegendMM LegendMM 0.0 26 6   99.50   -17 LegendNANA
10:00 -12.1 LegendMM LegendMM 0.0 28 7   99.52   -16 LegendNANA
11:00 -10.5 LegendMM LegendMM 0.0 31 15   99.54   -17 LegendNANA
12:00 -10.4 LegendMM LegendMM 0.0 31 20   99.56   -18 LegendNANA
13:00 -10.5 LegendMM LegendMM 0.0 31 20   99.60   -18 LegendNANA
14:00 -10.3 LegendMM LegendMM 0.0 34 15   99.59   -17 LegendNANA
15:00 -10.3 LegendMM LegendMM 0.0 31 22   99.63   -19 LegendNANA
16:00 -11.0 LegendMM LegendMM 0.0 32 18   99.66   -19 LegendNANA
17:00 -11.7 LegendMM LegendMM 0.0 31 16   99.71   -19 LegendNANA
18:00 -12.3 LegendMM LegendMM 0.0 32 19   99.78   -21 LegendNANA
19:00 -12.9 LegendMM LegendMM 0.0 32 19   99.86   -21 LegendNANA
20:00 -14.1 LegendMM LegendMM 0.0 32 16   99.91   -22 LegendNANA
21:00 -14.7 LegendMM LegendMM 0.0 31 14   99.94   -22 LegendNANA
22:00 -14.6 LegendMM LegendMM 0.0 31 14   99.98   -22 LegendNANA
23:00 -15.2 LegendMM LegendMM 0.0 32 14   100.02   -23 LegendNANA

Notes on Data Quality.

Legend

  • E = Estimated
  • M = Missing
  • NA = Not Available*
  • [empty] = Indicates an unobserved value
Date modified: